Regional Weather Roundup
Issued by NWS

Home | Current Version | Previous Version | Graphics & Text | Print | Product List | Glossary On
Versions: 1 2 3 4 5 6 7 8 9 10 11 12 13 14 15 16 17 18 19 20 21 22 23 24 25 26 27
000
ASUS45 KCYS 031510
RWRWY

WYOMING REGIONAL WEATHER ROUNDUP
NATIONAL WEATHER SERVICE CHEYENNE WY
800 AM MST SAT DEC 03 2016

NOTE:  "FAIR" INDICATES FEW OR NO CLOUDS BELOW 12,000 FEET
WITH NO SIGNIFICANT WEATHER AND/OR OBSTRUCTIONS TO VISIBILITY.

WYZ001-031600-
YELLOWSTONE NATIONAL PARK

CITY           SKY/WX    TMP DP  RH WIND       PRES   REMARKS
LK YELLOWSTONE   N/A     13   8  81 VRB7      30.05R WCI   3
W YELLOWSTONE  NOT AVBL

$$
WYZ002>013-054>058-071-098>099-031600-
NORTHERN WYOMING

CITY           SKY/WX    TMP DP  RH WIND       PRES   REMARKS
JACKSON        MOCLDY    19  16  86 S10       30.11R WCI   8
CODY           FAIR      31  12  45 W25G35    29.92R WCI  17
GREYBULL       CLOUDY    25  19  78 SE5       29.98R WCI  19
WORLAND        MOCLDY    19  15  84 S5        29.98R WCI  12
SHERIDAN       CLOUDY    26  19  74 SW7       29.89F WCI  18
BUFFALO        CLOUDY    30  12  47 SW3       29.89R
GILLETTE       CLOUDY    26  14  60 W14       29.89R WCI  14
HULETT         FAIR      27  16  63 SW12      29.89R WCI  16
NEWCASTLE      FAIR      19  12  73 E5        29.91S WCI  13

$$
WYZ014>020-022>026-101>103-031600-
CENTRAL WYOMING

CITY           SKY/WX    TMP DP  RH WIND       PRES   REMARKS
BIG PINEY      FAIR       6   3  87 CALM      30.11R
PINEDALE       FAIR       9   5  85 N7        30.09S WCI  -3
DUBOIS         CLOUDY    18   7  62 NW15      30.01R WCI   3
LANDER         FAIR      16   5  62 VRB6      29.96R WCI   7
RIVERTON       FAIR      24   9  52 W15       29.96R WCI  11
CASPER         CLOUDY    24  12  60 SW22      29.95R WCI   9
DOUGLAS        FAIR      27  11  51 W13G20    29.93R WCI  16

$$
WYZ021-027>030-104>119-031600-
SOUTHERN WYOMING

CITY           SKY/WX    TMP DP  RH WIND       PRES   REMARKS
EVANSTON       MOCLDY    14   8  77 SW10      30.16S WCI   1
FORT BRIDGER   CLOUDY    20  10  65 W20G25    30.16S WCI   5
ROCK SPRINGS   FAIR      17   7  64 W23       30.10R WCI  -1
DIXON          FAIR       4   1  86 NE3       30.16S
RAWLINS        FAIR      16   8  71 W20G30    30.02R WCI  -1
SARATOGA       CLOUDY    18  10  73 SE3       30.06R
LARAMIE        FAIR      16   3  56 SW22      29.93S WCI  -2
CHEYENNE       FAIR      26   2  35 SW15G26   29.96S WCI  14
TORRINGTON     FAIR      19  10  68 SE6       29.96F WCI  11
PINE BLUFFS    FAIR      12  10  92 S8        30.00S WCI   1

$$




USA.gov is the U.S. government's official web portal to all federal, state and local government web resources and services.